GW3825 Weather Reports


time (UTC)temp
F
wind
direction
speed
knots
gust
knots
rain 1hr
in
rain 24hr
in
rain mn
in
humidity
%
barometer
mb
20260504151028 71 243 16.5 20.0 0.00 0.00 0.00 55 1005.3
20260504150525 71 263 15.6 18.2 0.00 0.00 0.00 59 1005.3
20260504140950 67 245 9.6 9.6 0.00 0.00 0.00 63 1005.7
20260504140447 66 267 8.7 9.6 0.00 0.00 0.00 65 1005.9
20260504130411 63 148 0.9 0.9 0.00 0.00 0.00 78 1006.3
20260504110259 53 231 0.9 0.9 0.00 0.00 0.00 83 1006.9
20260504100217 53 221 1.7 1.7 0.00 0.00 0.00 82 1007.4
20260504090139 50 259 2.6 2.6 0.00 0.00 0.00 87 1007.8
20260504081610 49 248 1.7 2.6 0.00 0.00 0.00 87 1008.1
20260504081106 51 257 1.7 1.7 0.00 0.00 0.00 84 1007.9
20260504080603 51 251 1.7 1.7 0.00 0.00 0.00 84 1008.1
20260504050416 53 156 0.9 0.9 0.00 0.00 0.00 85 1009.3
20260504045913 55 131 0.9 0.9 0.00 0.00 0.00 79 1009.4
20260504045408 54 21 1.7 2.6 0.00 0.00 0.00 82 1009.4
20260504044904 55 27 2.6 3.5 0.00 0.00 0.00 81 1009.3
20260504044402 56 37 2.6 2.6 0.00 0.00 0.00 77 1009.4
20260504043900 59 32 0.0 0.0 0.00 0.00 0.00 73 1009.5
20260504043356 60 290 0.0 0.0 0.00 0.00 0.00 67 1009.5
20260504042854 60 290 0.0 0.0 0.00 0.00 0.00 67 1009.7
20260504042350 60 292 0.0 0.0 0.00 0.00 0.00 67 1009.9
20260504041846 60 306 0.0 0.0 0.00 0.00 0.00 68 1009.7
20260504041343 60 304 0.0 0.0 0.00 0.00 0.00 68 1009.8
20260504040839 60 264 0.0 0.0 0.00 0.00 0.00 68 1009.8
20260504040337 60 269 1.7 1.7 0.00 0.00 0.00 68 1009.7
20260504035832 60 272 1.7 2.6 0.00 0.00 0.00 69 1009.8
20260504035330 60 282 2.6 2.6 0.00 0.00 0.00 68 1009.9
20260504034827 59 284 0.9 1.7 0.00 0.00 0.00 69 1009.8
20260504034325 58 306 1.7 2.6 0.00 0.00 0.00 74 1010.1
20260504033821 57 239 1.7 1.7 0.00 0.00 0.00 70 1010.1
20260504033319 58 284 0.9 2.6 0.00 0.00 0.00 75 1010.3
20260504032815 59 269 1.7 2.6 0.00 0.00 0.00 73 1010.2
20260504032313 58 260 2.6 2.6 0.00 0.00 0.00 73 1010.4
20260504031809 60 253 2.6 2.6 0.00 0.00 0.00 70 1010.3
20260504031307 59 250 2.6 3.5 0.00 0.00 0.00 69 1010.3
20260504030803 59 240 3.5 3.5 0.00 0.00 0.00 70 1010.5
20260504030300 58 257 4.3 5.2 0.00 0.00 0.00 71 1010.5
20260504025756 58 259 4.3 5.2 0.00 0.00 0.00 72 1010.5
20260504025254 60 277 2.6 3.5 0.00 0.00 0.00 69 1010.5
20260504024750 60 254 3.5 3.5 0.00 0.00 0.00 68 1010.5
20260504024247 62 239 3.5 5.2 0.00 0.00 0.00 64 1010.4
20260504023743 62 231 3.5 5.2 0.00 0.00 0.00 61 1010.3
20260504023240 64 239 3.5 3.5 0.00 0.00 0.00 60 1010.3
20260504022735 63 232 3.5 3.5 0.00 0.00 0.00 61 1010.5
20260504022232 64 242 3.5 3.5 0.00 0.00 0.00 59 1010.3
20260504021729 64 228 4.3 5.2 0.00 0.00 0.00 60 1010.3
20260504021227 64 237 4.3 5.2 0.00 0.00 0.00 59 1010.1
20260504020723 63 219 2.6 2.6 0.00 0.00 0.00 61 1010.3
20260504020220 62 246 3.5 3.5 0.00 0.00 0.00 63 1010.4
20260504015716 62 241 4.3 5.2 0.00 0.00 0.00 65 1010.4
20260504015212 61 242 3.5 3.5 0.00 0.00 0.00 68 1010.5
20260504014708 61 246 3.5 3.5 0.00 0.00 0.00 70 1010.5
20260504014205 61 257 1.7 2.6 0.00 0.00 0.00 71 1010.3
20260504013703 61 276 1.7 1.7 0.00 0.00 0.00 72 1010.1
20260504013159 61 274 1.7 2.6 0.00 0.00 0.00 73 1010.3
20260504012656 64 240 2.6 3.5 0.00 0.00 0.00 63 1010.1
20260504012154 63 242 3.5 3.5 0.00 0.00 0.00 62 1010.3
20260504011651 63 245 3.5 3.5 0.00 0.00 0.00 63 1010.1
20260504011147 62 244 3.5 3.5 0.00 0.00 0.00 66 1010.1
20260504010643 63 258 3.5 3.5 0.00 0.00 0.00 65 1010.1
20260504010139 64 249 3.5 3.5 0.00 0.00 0.00 64 1010.2
20260504005636 64 262 3.5 3.5 0.00 0.00 0.00 66 1010.2
20260504005128 65 254 4.3 5.2 0.00 0.00 0.00 62 1010.3
20260504004626 66 266 3.5 3.5 0.00 0.00 0.00 59 1010.2
20260504004122 66 268 3.5 3.5 0.00 0.00 0.00 61 1010.1
20260504003619 66 260 3.5 3.5 0.00 0.00 0.00 60 1010.0
20260504003110 66 265 3.5 5.2 0.00 0.00 0.00 60 1010.2
20260504002607 67 264 3.5 3.5 0.00 0.00 0.00 59 1010.0
20260504002105 67 275 2.6 3.5 0.00 0.00 0.00 60 1010.0
20260504001602 67 268 5.2 5.2 0.00 0.00 0.00 57 1010.1
20260504001058 68 264 5.2 6.1 0.00 0.00 0.00 55 1010.2
20260504000555 68 283 5.2 7.0 0.00 0.00 0.00 55 1010.1
20260504000053 68 268 7.8 7.8 0.00 0.00 0.00 53 1010.1
20260503235551 69 255 6.1 8.7 0.00 0.00 0.00 53 1010.2
20260503235047 69 262 7.0 7.0 0.00 0.00 0.00 54 1010.2
20260503234545 69 275 9.6 11.3 0.00 0.00 0.00 51 1010.4
20260503234043 69 271 8.7 11.3 0.00 0.00 0.00 52 1010.3
20260503233539 69 264 7.8 11.3 0.00 0.00 0.00 52 1010.3
20260503233035 70 264 7.8 8.7 0.00 0.00 0.00 51 1010.2
20260503232533 71 273 8.7 11.3 0.00 0.00 0.00 50 1010.2
20260503232030 71 288 7.8 8.7 0.00 0.00 0.00 49 1009.9
20260503231528 70 269 8.7 11.3 0.00 0.00 0.00 50 1010.1
20260503231024 70 266 8.7 11.3 0.00 0.00 0.00 51 1010.1
20260503230521 70 261 7.0 8.7 0.00 0.00 0.00 52 1010.1
20260503230018 69 275 7.8 9.6 0.00 0.00 0.00 52 1010.5
20260503225515 69 297 7.8 9.6 0.00 0.00 0.00 53 1010.4
20260503225010 69 281 9.6 9.6 0.00 0.00 0.00 52 1010.5
20260503224508 69 269 12.2 13.9 0.00 0.00 0.00 52 1010.3
20260503224005 70 267 10.4 12.2 0.00 0.00 0.00 52 1010.3
20260503223502 69 260 8.7 9.6 0.00 0.00 0.00 52 1010.0
20260503222957 69 266 9.6 12.2 0.00 0.00 0.00 51 1010.5
20260503222456 69 266 9.6 12.2 0.00 0.00 0.00 51 1010.5
20260503221949 69 260 13.0 18.2 0.00 0.00 0.00 50 1010.7
20260503221447 70 273 13.9 19.1 0.00 0.00 0.00 49 1010.3
20260503220944 70 264 13.9 19.1 0.00 0.00 0.00 48 1010.2
20260503220439 70 259 18.2 20.0 0.00 0.00 0.00 48 1010.1
20260503215937 71 269 15.6 18.2 0.00 0.00 0.00 48 1010.2
20260503215434 71 270 13.0 20.9 0.00 0.00 0.00 49 1010.2
20260503214931 71 259 18.2 20.9 0.00 0.00 0.00 48 1010.2
20260503214429 70 266 19.1 21.7 0.00 0.00 0.00 48 1010.3
20260503213926 70 273 17.4 21.7 0.00 0.00 0.00 48 1010.3
20260503213424 70 248 20.0 23.5 0.00 0.00 0.00 47 1010.3
20260503212920 70 249 15.6 20.9 0.00 0.00 0.00 49 1010.4
20260503212418 70 279 21.7 30.4 0.00 0.00 0.00 48 1010.4
20260503211915 70 271 20.0 30.4 0.00 0.00 0.00 49 1010.4
20260503211412 70 283 18.2 27.8 0.00 0.00 0.00 49 1010.5
20260503210907 70 251 22.6 26.9 0.00 0.00 0.00 48 1010.5
20260503210404 70 265 21.7 26.1 0.00 0.00 0.00 48 1010.1
20260503205858 71 245 22.6 27.8 0.00 0.00 0.00 47 1010.2
20260503205355 71 262 24.3 26.9 0.00 0.00 0.00 47 1010.2
20260503204852 71 268 23.5 26.1 0.00 0.00 0.00 47 1010.6
20260503204349 71 263 17.4 22.6 0.00 0.00 0.00 47 1010.4
20260503203846 71 251 17.4 20.9 0.00 0.00 0.00 48 1010.2
20260503203344 69 269 20.9 23.5 0.00 0.00 0.00 48 1011.0
20260503202841 70 266 21.7 25.2 0.00 0.00 0.00 48 1010.9
20260503202339 70 273 17.4 20.9 0.00 0.00 0.00 48 1011.2
20260503201837 69 269 17.4 22.6 0.00 0.00 0.00 48 1011.2
20260503201333 69 255 20.0 26.9 0.00 0.00 0.00 48 1011.0
20260503200831 69 268 14.8 19.1 0.00 0.00 0.00 48 1010.8
20260503200326 69 266 14.8 16.5 0.00 0.00 0.00 49 1011.1
20260503195824 68 241 15.6 16.5 0.00 0.00 0.00 50 1011.3
20260503195320 67 234 12.2 16.5 0.00 0.00 0.00 51 1011.0
20260503194818 67 241 12.2 15.6 0.00 0.00 0.00 52 1011.0
20260503194314 66 234 14.8 16.5 0.00 0.00 0.00 52 1011.2
20260503193810 65 236 18.2 20.0 0.00 0.00 0.00 52 1011.6
20260503193306 65 244 14.8 20.0 0.00 0.00 0.00 52 1011.5
20260503192802 66 241 16.5 19.1 0.00 0.00 0.00 50 1011.9
20260503192257 66 240 17.4 20.9 0.00 0.00 0.00 50 1011.9
20260503191754 66 251 18.2 20.9 0.00 0.00 0.00 50 1012.3
20260503191251 65 243 16.5 20.0 0.00 0.00 0.00 50 1011.9
20260503190748 66 272 16.5 20.9 0.00 0.00 0.00 50 1012.3
20260503190245 66 261 14.8 18.2 0.00 0.00 0.00 49 1012.4
20260503185742 66 242 15.6 16.5 0.00 0.00 0.00 49 1012.0
20260503185238 65 237 16.5 21.7 0.00 0.00 0.00 49 1011.3
20260503184732 65 240 16.5 19.1 0.00 0.00 0.00 49 1011.5
20260503184229 65 262 20.0 26.1 0.00 0.00 0.00 49 1012.4
20260503183725 66 268 16.5 20.0 0.00 0.00 0.00 48 1012.6
20260503183223 65 266 18.2 20.0 0.00 0.00 0.00 48 1012.4
20260503182721 65 265 16.5 19.1 0.00 0.00 0.00 49 1012.3
20260503182219 64 237 16.5 18.2 0.00 0.00 0.00 48 1012.0
20260503181715 64 228 13.0 16.5 0.00 0.00 0.00 48 1011.7
20260503181213 65 239 19.1 21.7 0.00 0.00 0.00 47 1012.0
20260503180709 64 237 17.4 21.7 0.00 0.00 0.00 48 1012.6
20260503180208 64 249 18.2 21.7 0.00 0.00 0.00 46 1012.8
20260503175704 66 237 14.8 18.2 0.00 0.00 0.00 47 1012.9
20260503175202 66 237 13.0 15.6 0.00 0.00 0.00 47 1012.8
20260503174657 65 235 13.9 16.5 0.00 0.00 0.00 45 1013.0
20260503174155 66 259 14.8 16.5 0.00 0.00 0.00 46 1013.0
20260503173650 65 244 19.1 20.9 0.00 0.00 0.00 46 1013.0
20260503173146 64 228 15.6 16.5 0.00 0.00 0.00 46 1012.8
20260503172644 64 239 17.4 19.1 0.00 0.00 0.00 45 1013.2
20260503172141 65 236 20.9 22.6 0.00 0.00 0.00 43 1013.2
20260503171637 65 199 7.8 14.8 0.00 0.00 0.00 46 1012.8
20260503171135 65 251 21.7 26.1 0.00 0.00 0.00 44 1013.1
20260503170632 65 237 15.6 22.6 0.00 0.00 0.00 45 1013.3
20260503170128 65 231 14.8 19.1 0.00 0.00 0.00 45 1013.4